User: anonymous   Login
Location: Bakov nad Jizerou
(50.4784°N, 14.9394°E)
Time: 18:36:23
(UTC+00:00)
Language:

Cosmos 2237 Rocket - Orbit

View from above orbital plane
View from above orbital plane
View from above satellite
View from above satellite

Ground track
Ground track

The orbit data is extracted from the following two-line orbital elements,

1 22566U 93016B   21263.82776816 -.00000024  00000-0  12189-4 0  9991
2 22566  71.0097  39.3715 0012668 283.0636  76.9072 14.14979558471451
Epoch (UTC): 20 September 2021 19:51:59
Eccentricity: 0.0012668
inclination: 71.0097°
perigee height: 833 km
apogee height: 851 km
right ascension of ascending node: 39.3715°
argument of perigee: 283.0636°
revolutions per day: 14.14979558
mean anomaly at epoch: 76.9072°
orbit number at epoch: 47145

The dashed part of the orbit path shows where the satellite is in the earth's shadow,  

DLR